Regional Weather Roundup
Issued by NWS Green Bay, WI

Home | Current Version | Previous Version | Graphics & Text | Print | Product List | Glossary Off
Versions: 1 2 3 4 5 6 7 8 9 10 11 12 13 14 15 16 17 18 19 20 21 22 23 24 25 26 27 28 29 30 31 32 33 34 35 36 37 38 39 40 41 42 43 44 45 46 47 48 49 50

000
ASUS43 KGRB 292200
RWRGRB

NORTH-CENTRAL AND NORTHEAST WISCONSIN REGIONAL WEATHER ROUNDUP
NATIONAL WEATHER SERVICE GREEN BAY WI
500 PM CDT MON AUG 29 2016

WIZ005-009-010>012-018-019-292300-
NORTH CENTRAL WISCONSIN

CITY           SKY/WX    TMP DP  RH WIND       PRES   REMARKS
IRONWOOD       SUNNY     83  68  60 W9        30.14F
MANITOWISH WTR NOT AVBL
ARBOR VITAE    NOT AVBL
EAGLE RIVER    NOT AVBL
LAND O LAKES   NOT AVBL
RHINELANDER    PTSUNNY   79  71  76 SW9       30.20R
PHILLIPS       CLOUDY    79  70  73 SW9       30.17R
ANTIGO         NOT AVBL
TOMAHAWK       NOT AVBL
MERRILL        MOSUNNY   82  71  69 SW8       30.19S
$$

WIZ013-073-292300-
NORTHEAST WISCONSIN

CITY           SKY/WX    TMP DP  RH WIND       PRES   REMARKS
IRON MOUNTAIN  CLOUDY    81  67  62 S10       30.15S
MARINETTE      NOT AVBL
$$

WIZ017-030-035>037-045-292300-
CENTRAL WISCONSIN

CITY           SKY/WX    TMP DP  RH WIND       PRES   REMARKS
MEDFORD        NOT AVBL
WAUSAU         MOSUNNY   81  70  69 SW8       30.17S
MOSINEE        NOT AVBL
MARSHFIELD     PTSUNNY   82  70  66 S6        30.18S
WISC RAPIDS    CLOUDY    81  71  71 SW10      30.19S
STEVENS POINT  NOT AVBL
WAUPACA        NOT AVBL
SHAWANO        NOT AVBL
CLINTONVILLE   MOSUNNY   84  68  58 SW9       30.16S
WAUTOMA        MOSUNNY   82  72  71 S6        30.18R
$$

WIZ038-039-048-051-292300-
FOX VALLEY

CITY           SKY/WX    TMP DP  RH WIND       PRES   REMARKS
NWS GREEN BAY  SUNNY     83  71  67 SW9       30.16S
APPLETON       PTSUNNY   82  66  57 S7        30.17R
OSHKOSH        SUNNY     82  68  62 S12       30.16F
FOND DU LAC    MOSUNNY   81  71  71 MISG      30.17F
$$

WIZ022-050-052-292300-
EAST CENTRAL WISCONSIN

CITY           SKY/WX    TMP DP  RH WIND       PRES   REMARKS
EPHRAIM        NOT AVBL
WASHINGTON ISL NOT AVBL
STURGEON BAY   MOSUNNY   79  68  69 S10       30.18S
MANITOWOC      NOT AVBL
SHEBOYGAN      SUNNY     78  65  63 S6        30.19F
$$

LMZ563-521-522-541>543-292300-
LAKESHORE

STATION/POSITION TIME  TEMP    WIND        PRES    VSBY  WAVE
                       AIR SEA DIR/SP/G                  HT/PER
                 (UTC) (F)     (DEG/KT/KT) (MB)    (MI)  (FT/S)
SHEBOYGAN LKSHOR 2100   71     170/ 12/ 12 1021.9F
KEWAUNEE LKSHORE 2100   69     180/ 11/ 14 1021.5F
ALGOMA MARINA    2045          220/  8/  9   N/A
NORTHPORT PIER   2100   75     160/  5/  9 1021.7F
N MID LAKE BUOY  2050   72 72  220/ 10/ 12 1021.8F         1/ 3
S GREEN BAY BUOY 2100   76 74  190/  4/  4 1020.8
SISTER BAY LKSHO 2107   81     170/ 11/ 14   N/A
CHAMBERS ISLAND  2100   79     160/  5/  9 1021.0F
MENOMINEE LKSHOR 2100   74     130/  8/  9 1020.4F
$$




USA.gov is the U.S. government's official web portal to all federal, state and local government web resources and services.